Location: ????????
(54.6123°N, 39.2099°E)
Time: 14:29:56
(UTC+00:00)

ARIANE 6 FM1 Upper Stage - Pass Details

Date: 19 May 2025
Orbit: 530 x 610 km, 62.0° (Epoch: 19 June)

Event Time Altitude Azimuth Distance (km) Brightness Sun altitude
Rises 20:22:59 0° 261° (W) 2,675 6.2 -14.4°
Reaches altitude 10° 20:25:16 10° 269° (W) 1,791 5.4 -14.5°
Maximum altitude 20:29:03 39° 340° (NNW) 821 4.1 -14.6°
Drops below altitude 10° 20:32:55 10° 50° (NE) 1,824 5.6 -14.8°
Sets 20:35:17 0° 58° (ENE) 2,732 6.5 -14.8°
